Tracking 29799 objects as of 10-Oct-2024
HD Live streaming from Space Station
objects crossing your sky now

STARLINK-11310

Track STARLINK-11310 now!
10-day predictions


NORAD ID: 61212
Int'l Code: 2024-171N
Perigee: 346.6 km
Apogee: 347.3 km
Inclination: 53.2 °
Period: 91.3 minutes
Semi major axis: 6717 km
RCS: Unknown
Launch date: September 20, 2024
Source: United States (US)
Launch site: AIR FORCE WESTERN TEST RANGE (AFWTR)
Your satellite tracking list
Your tracking list is empty




NASA's NSSDC Master Catalog

Two Line Element Set (TLE):
1 61212U 24171N   24284.58334491  .00035600  00000-0  22087-3 0  9990
2 61212  53.1584 196.2366 0000487 109.5617 341.7812 15.76700362  4402
Source of the keplerian elements: AFSPC